Flag for U.S.A. Weather past 2 weeks in St. Louis, Missouri, U.S.A.

Now
78 °F

Passing clouds.


Feels Like: 80 °F
Forecast: 74 / 92 °F
Wind: No wind

Location: Lambert-St. Louis International Airport

Current Time: Sep 3, 2015 at 7:55:07 AM

Latest Report: Sep 3, 2015 at 6:51 AM


Visibility: 8 mi

Pressure: 29.97 "Hg

Humidity: 71%

Dew point: 68 °F

Location of St. LouisLocation

Historic Weather in St. Louis — Graph

°F

St. Louis temperature yesterday

Maximum temperature yesterday: 93 °F (at 1:51 PM)
Minimum temperature yesterday: 76 °F (at 3:51 AM)
Average temperature yesterday: 84 °F

Past Weeks' High & Low Weather Summary

 TemperatureHumidityPressure
High93 °F (Sep 1, 1:51 PM)100% (Aug 23, 12:51 AM)30.17 "Hg (Aug 23, 12:51 AM)
Low58 °F (Aug 24, 4:51 AM)30% (Aug 24, 2:51 PM)29.76 "Hg (Aug 19, 6:51 AM)
Average75 °F63%30.02 "Hg
* Reported Aug 19 6:51 AM — Sep 3 6:51 AM, St. Louis, Weather by CustomWeather, © 2015

Note: Actual official high and low records may vary slightly from our data, if they occured in-between our weather recording intervals... More about our weather records

Advertising

St. Louis weather history for previous 24 hours

 ConditionsComfort  
Time TempWeatherWind HumidityBarometerVisibility
6:51 AM
Thu, Sep 3
78 °FPassing clouds.No wind71%29.97 "Hg8 mi
5:51 AM77 °FPassing clouds.No wind74%29.96 "Hg10 mi
4:51 AM77 °FClear.3 mph74%29.95 "Hg10 mi
3:51 AM77 °FClear.No wind77%29.95 "Hg10 mi
2:51 AM79 °FClear.5 mph72%29.95 "Hg10 mi
1:51 AM79 °FClear.5 mph72%29.95 "Hg10 mi
12:51 AM80 °FClear.5 mph69%29.96 "Hg10 mi
11:51 PM
Wed, Sep 2
82 °FClear.6 mph65%29.96 "Hg10 mi
10:51 PM82 °FClear.3 mph65%29.96 "Hg10 mi
9:51 PM83 °FPassing clouds.5 mph63%29.97 "Hg10 mi
8:51 PM85 °FPassing clouds.No wind57%29.96 "Hg10 mi
7:51 PM87 °FBroken clouds.No wind51%29.95 "Hg10 mi
6:51 PM89 °FBroken clouds.6 mph46%29.95 "Hg10 mi
5:51 PM89 °FBroken clouds.6 mph45%29.95 "Hg10 mi
4:51 PM91 °FBroken clouds.9 mph39%29.95 "Hg10 mi
3:51 PM91 °FPartly sunny.10 mph38%29.96 "Hg10 mi
2:51 PM93 °FPartly sunny.10 mph37%29.98 "Hg10 mi
1:51 PM93 °FPartly sunny.10 mph41%30.01 "Hg10 mi
12:51 PM91 °FPartly sunny.10 mph44%30.04 "Hg10 mi
11:51 AM90 °FScattered clouds.8 mph47%30.05 "Hg10 mi
10:51 AM89 °FPassing clouds.5 mph50%30.07 "Hg10 mi
9:51 AM85 °FScattered clouds.5 mph59%30.07 "Hg10 mi
8:51 AM82 °FScattered clouds.10 mph63%30.06 "Hg10 mi
7:51 AM78 °FScattered clouds.5 mph71%30.07 "Hg10 mi
Weather by CustomWeather, © 2015

See weather overviewHow to use our weather pages